Regional Weather Roundup
Issued by NWS Goodland, KS

Home | Current Version | Previous Version | Text Only | Print | Product List | Glossary Off
Versions: 1 2 3 4 5 6 7 8 9 10 11 12 13 14 15 16 17 18 19 20 21 22 23 24 25 26 27 28 29 30 31 32 33 34 35 36 37 38 39 40 41 42 43 44 45 46 47 48 49 50

000
ASUS43 KGLD 300159
RWRGLD

GOODLAND FORECAST AREA HOURLY WEATHER ROUNDUP
NATIONAL WEATHER SERVICE GOODLAND KS
800 PM MDT WED OCT 29 2014

...OFFICIAL OBSERVATIONS...

CITY           SKY/WX    TMP DP  RH WIND       PRES   REMARKS
GOODLAND KS    PTCLDY    61  25  25 SW17      30.04F
HILL CITY KS   CLEAR     49  35  58 SW3       30.00F
IMPERIAL NEB   MOCLDY    62  21  20 NW13      30.02R
MCCOOK NEB     CLEAR     57  32  38 S9        29.97S
AKRON CO       CLEAR     51  24  34 N12       30.11R
BURLINGTON CO  PTCLDY    49  23  36 SW10      30.08R
LIMON CO       CLEAR     41  19  41 N8        30.15R
$$

...UNOFFICIAL OBSERVATIONS...

CITY           SKY/WX    TMP DP  RH WIND       PRES   REMARKS
COLBY KS       CLEAR     61  36  39 S13       30.02S
NORTON KS      CLEAR     55  28  35 S8        29.97S
SHARON SPRINGS   N/A     52  30  42 SW8         N/A
TRIBUNE KS     CLEAR     46  37  71 SW6       30.08S
TRENTON NEB      N/A     55  32  41 SW7         N/A
$$



USA.gov is the U.S. government's official web portal to all federal, state and local government web resources and services.